Weather History for KGAD - September, 2014

Change the Weather History Date:

Wednesday, September 24, 2014

  Actual Average Record
Temperature  
Mean Temperature 68 °F -  
Max Temperature 80 °F 78 °F 98 °F (1931)
Min Temperature 55 °F 55 °F 41 °F (1949)
Cooling Degree Days 2    
Growing Degree Days 18 (Base 50)    
Moisture  
Dew Point 52 °F    
Average Humidity 62    
Maximum Humidity 88    
Minimum Humidity 32    
Precipitation  
Precipitation 0.00 in - - ()
Sea Level Pressure  
Sea Level Pressure 30.25 in    
Wind  
Wind Speed 6 mph (ENE)    
Max Wind Speed 13 mph    
Max Gust Speed 16 mph    
Visibility 10 miles    
Events      
Averages and records for this station are not official NWS values.
T = Trace of Precipitation, MM = Missing Value Source: NWS Daily Summary

Daily Weather History Graph

Daily Weather History Graph

Search for Another Location

Airport or City:

Trip Planner

Search our weather history database for the weather conditions in past years. The results will help you decide how hot, cold, wet, or windy it might be!

Date:

Astronomy

Sep. 24, 2014 Rise Set
Actual Time 6:33 AM CDT 6:38 PM CDT
Civil Twilight 6:08 AM CDT 7:03 PM CDT
Nautical Twilight 5:39 AM CDT 7:32 PM CDT
Astronomical Twilight 5:10 AM CDT 8:01 PM CDT
Moon 6:51 AM CDT (9/24) 6:51 PM CDT (9/24)
Length of Visible Light 12h 54m
Length of Day
12h 04m
New Moon, 0% of the Moon is Illuminated
Sep 24
New Moon
Oct 1
First Quarter
Oct 8
Full
Oct 15
Last Quarter
Oct 23
New

Hourly Weather History & Observations

Time (CDT) Temp. Dew Point Humidity Pressure Visibility Wind Dir Wind Speed Gust Speed Precip Events Conditions
12:15 AM 60.8 °F 53.6 °F 77% 30.23 in 10.0 mi ENE 5.8 mph - N/A   Clear
12:35 AM 60.8 °F 53.6 °F 77% 30.23 in 10.0 mi NE 3.5 mph - N/A   Clear
12:55 AM 60.8 °F 53.6 °F 77% 30.23 in 10.0 mi NNE 4.6 mph - N/A   Clear
1:15 AM 57.2 °F 53.6 °F 88% 30.23 in 10.0 mi NNE 4.6 mph - N/A   Clear
1:35 AM 60.8 °F 53.6 °F 77% 30.23 in 10.0 mi NNE 3.5 mph - N/A   Clear
1:55 AM 59.0 °F 51.8 °F 77% 30.23 in 10.0 mi ENE 5.8 mph - N/A   Clear
2:15 AM 60.8 °F 53.6 °F 77% 30.23 in 10.0 mi NE 6.9 mph - N/A   Clear
2:35 AM 59.0 °F 53.6 °F 82% 30.23 in 10.0 mi NE 5.8 mph - N/A   Clear
2:55 AM 57.2 °F 51.8 °F 82% 30.23 in 10.0 mi NNE 6.9 mph - N/A   Clear
3:15 AM 59.0 °F 51.8 °F 77% 30.23 in 10.0 mi NE 6.9 mph - N/A   Clear
3:35 AM 57.2 °F 51.8 °F 82% 30.23 in 10.0 mi NE 6.9 mph - N/A   Clear
3:55 AM 57.2 °F 51.8 °F 82% 30.24 in 10.0 mi NE 8.1 mph - N/A   Clear
4:15 AM 57.2 °F 51.8 °F 82% 30.24 in 10.0 mi ENE 8.1 mph - N/A   Clear
4:35 AM 57.2 °F 51.8 °F 82% 30.24 in 10.0 mi ENE 6.9 mph - N/A   Clear
4:55 AM 57.2 °F 51.8 °F 82% 30.25 in 10.0 mi ENE 6.9 mph - N/A   Clear
5:15 AM 57.2 °F 51.8 °F 82% 30.26 in 10.0 mi NE 5.8 mph - N/A   Clear
5:35 AM 55.4 °F 50.0 °F 82% 30.26 in 10.0 mi NE 6.9 mph - N/A   Clear
5:55 AM 55.4 °F 50.0 °F 82% 30.26 in 10.0 mi NE 8.1 mph - N/A   Clear
6:15 AM 55.4 °F 48.2 °F 77% 30.28 in 10.0 mi NE 5.8 mph - N/A   Clear
6:35 AM 55.4 °F 48.2 °F 77% 30.28 in 10.0 mi NNE 4.6 mph - N/A   Clear
6:55 AM 55.4 °F 48.2 °F 77% 30.29 in 10.0 mi NNE 3.5 mph - N/A   Clear
7:15 AM 55.4 °F 50.0 °F 82% 30.29 in 10.0 mi North 3.5 mph - N/A   Clear
7:35 AM 57.2 °F 50.0 °F 77% 30.29 in 10.0 mi Calm Calm - N/A   Clear
7:55 AM 60.8 °F 51.8 °F 72% 30.30 in 10.0 mi ENE 6.9 mph - N/A   Clear
8:15 AM 62.6 °F 50.0 °F 63% 30.30 in 10.0 mi ENE 8.1 mph - N/A   Clear
8:35 AM 62.6 °F 50.0 °F 63% 30.31 in 10.0 mi East 9.2 mph - N/A   Clear
8:55 AM 64.4 °F 48.2 °F 56% 30.31 in 10.0 mi East 11.5 mph - N/A   Clear
9:15 AM 64.4 °F 50.0 °F 59% 30.31 in 10.0 mi East 9.2 mph - N/A   Clear
9:35 AM 66.2 °F 48.2 °F 52% 30.31 in 10.0 mi East 10.4 mph 16.1 mph N/A   Clear
9:55 AM 68.0 °F 50.0 °F 52% 30.32 in 10.0 mi ENE 11.5 mph - N/A   Clear
10:15 AM 68.0 °F 48.2 °F 49% 30.32 in 10.0 mi ENE 12.7 mph - N/A   Clear
10:35 AM 69.8 °F 50.0 °F 49% 30.31 in 10.0 mi ENE 9.2 mph - N/A   Clear
10:55 AM 69.8 °F 50.0 °F 49% 30.31 in 10.0 mi ENE 5.8 mph 16.1 mph N/A   Clear
11:15 AM 71.6 °F 50.0 °F 46% 30.31 in 10.0 mi East 5.8 mph - N/A   Clear
11:35 AM 71.6 °F 51.8 °F 50% 30.30 in 10.0 mi ENE 6.9 mph - N/A   Clear
11:55 AM 73.4 °F 51.8 °F 47% 30.30 in 10.0 mi NE 5.8 mph - N/A   Clear
12:15 PM 73.4 °F 50.0 °F 44% 30.29 in 10.0 mi East 8.1 mph - N/A   Clear
12:35 PM 75.2 °F 51.8 °F 44% 30.29 in 10.0 mi East 8.1 mph - N/A   Clear
12:55 PM 75.2 °F 51.8 °F 44% 30.28 in 10.0 mi East 10.4 mph - N/A   Clear
1:15 PM 77.0 °F 51.8 °F 41% 30.27 in 10.0 mi NNE 11.5 mph - N/A   Clear
1:35 PM 78.8 °F 51.8 °F 39% 30.26 in 10.0 mi ENE 8.1 mph - N/A   Clear
1:55 PM 78.8 °F 51.8 °F 39% 30.25 in 10.0 mi NNE 8.1 mph 16.1 mph N/A   Clear
2:15 PM 78.8 °F 51.8 °F 39% 30.24 in 10.0 mi NE 6.9 mph - N/A   Clear
2:35 PM 78.8 °F 51.8 °F 39% 30.23 in 8.0 mi ENE 9.2 mph - N/A   Clear
2:55 PM 78.8 °F 48.2 °F 34% 30.22 in 10.0 mi SW 3.5 mph - N/A   Clear
3:15 PM 80.6 °F 50.0 °F 34% 30.21 in 10.0 mi ENE 11.5 mph - N/A   Clear
3:35 PM 80.6 °F 50.0 °F 34% 30.21 in 10.0 mi NNE 8.1 mph - N/A   Clear
3:55 PM 80.6 °F 48.2 °F 32% 30.21 in 10.0 mi ENE 9.2 mph - N/A   Clear
4:15 PM 80.6 °F 50.0 °F 34% 30.20 in 10.0 mi East 5.8 mph - N/A   Clear
4:35 PM 80.6 °F 50.0 °F 34% 30.20 in 10.0 mi ENE 8.1 mph - N/A   Clear
4:55 PM 80.6 °F 50.0 °F 34% 30.20 in 10.0 mi ENE 8.1 mph - N/A   Clear
5:15 PM 80.6 °F 50.0 °F 34% 30.20 in 10.0 mi ENE 6.9 mph - N/A   Clear
5:35 PM 78.8 °F 50.0 °F 36% 30.20 in 10.0 mi ENE 10.4 mph - N/A   Clear
5:55 PM 78.8 °F 51.8 °F 39% 30.20 in 10.0 mi ENE 8.1 mph - N/A   Clear
6:15 PM 75.2 °F 51.8 °F 44% 30.20 in 10.0 mi ENE 5.8 mph - N/A   Clear
6:35 PM 73.4 °F 53.6 °F 50% 30.20 in 10.0 mi East 3.5 mph - N/A   Clear
6:55 PM 71.6 °F 53.6 °F 53% 30.20 in 10.0 mi NE 3.5 mph - N/A   Clear
7:15 PM 69.8 °F 53.6 °F 56% 30.20 in 10.0 mi Calm Calm - N/A   Clear
7:35 PM 68.0 °F 53.6 °F 60% 30.20 in 10.0 mi Calm Calm - N/A   Clear
7:55 PM 64.4 °F 53.6 °F 68% 30.20 in 10.0 mi Calm Calm - N/A   Clear
8:15 PM 64.4 °F 53.6 °F 68% 30.20 in 10.0 mi Calm Calm - N/A   Clear
8:35 PM 64.4 °F 53.6 °F 68% 30.21 in 10.0 mi Calm Calm - N/A   Clear
8:55 PM 62.6 °F 53.6 °F 72% 30.22 in 10.0 mi Calm Calm - N/A   Clear
9:15 PM 62.6 °F 53.6 °F 72% 30.22 in 10.0 mi Calm Calm - N/A   Clear
9:35 PM 62.6 °F 53.6 °F 72% 30.22 in 10.0 mi Calm Calm - N/A   Clear
9:55 PM 60.8 °F 53.6 °F 77% 30.23 in 10.0 mi Calm Calm - N/A   Clear
10:15 PM 60.8 °F 53.6 °F 77% 30.23 in 10.0 mi Calm Calm - N/A   Clear
10:35 PM 59.0 °F 53.6 °F 82% 30.23 in 10.0 mi Calm Calm - N/A   Clear
10:55 PM 59.0 °F 53.6 °F 82% 30.23 in 10.0 mi Calm Calm - N/A   Clear
11:15 PM 57.2 °F 53.6 °F 88% 30.23 in 10.0 mi Calm Calm - N/A   Clear
11:35 PM 57.2 °F 53.6 °F 88% 30.23 in 10.0 mi Calm Calm - N/A   Clear
11:55 PM 59.0 °F 53.6 °F 82% 30.23 in 10.0 mi Calm Calm - N/A   Clear